• In Österreich
  • Länderverzeichnis
  • Für 7 Tage
  • Wassertemperatur
  • Satellitenkarten
  • Wetterkarte
  • News
  • Widgets
  • user-avatar
    Anmelden

    Stündliche Wetter Kenmare

    Heute, 17 Oktober, Mittwoch

    Zeit Temperatur Niederschläge Wind Luftdruck Luftfeuchtigkeit
    00:00 +8°C° 0.1 mm 4 m/S 752 mmHg 95%
    01:00 +8°C° 0.1 mm 4 m/S 753 mmHg 95%
    02:00 +9°C° 0.1 mm 3 m/S 753 mmHg 95%
    03:00 +8°C° 0 mm 4 m/S 753 mmHg 95%
    04:00 +7°C° 0 mm 4 m/S 754 mmHg 94%
    05:00 +7°C° 0 mm 4 m/S 755 mmHg 93%
    06:00 +8°C° 0 mm 5 m/S 755 mmHg 90%
    07:00 +9°C° 0 mm 5 m/S 756 mmHg 86%
    08:00 +9°C° 0 mm 5 m/S 756 mmHg 82%
    09:00 +10°C° 0 mm 5 m/S 757 mmHg 76%
    10:00 +10°C° 0 mm 5 m/S 758 mmHg 71%
    11:00 +12°C° 0 mm 5 m/S 758 mmHg 65%
    12:00 +12°C° 0 mm 5 m/S 759 mmHg 65%
    13:00 +12°C° 0 mm 5 m/S 759 mmHg 65%
    14:00 +12°C° 0 mm 5 m/S 759 mmHg 65%
    15:00 +11°C° 0 mm 4 m/S 760 mmHg 70%
    16:00 +10°C° 0 mm 4 m/S 760 mmHg 76%
    17:00 +7°C° 0 mm 4 m/S 761 mmHg 82%
    18:00 +8°C° 0 mm 3 m/S 761 mmHg 83%
    19:00 +7°C° 0 mm 3 m/S 762 mmHg 85%
    20:00 +7°C° 0 mm 3 m/S 762 mmHg 86%
    21:00 +7°C° 0 mm 2 m/S 763 mmHg 87%
    22:00 +6°C° 0 mm 2 m/S 763 mmHg 87%
    23:00 +6°C° 0 mm 2 m/S 763 mmHg 88%

    Morgen, 18 Oktober, Donnerstag

    Zeit Temperatur Niederschläge Wind Luftdruck Luftfeuchtigkeit
    00:00 +6°C° 0 mm 2 m/S 763 mmHg 88%
    01:00 +6°C° 0 mm 2 m/S 763 mmHg 89%
    02:00 +6°C° 0 mm 1 m/S 763 mmHg 89%
    03:00 +5°C° 0 mm 2 m/S 762 mmHg 89%
    04:00 +5°C° 0 mm 2 m/S 762 mmHg 89%
    05:00 +5°C° 0 mm 2 m/S 762 mmHg 88%
    06:00 +6°C° 0 mm 2 m/S 762 mmHg 85%
    07:00 +6°C° 0 mm 2 m/S 762 mmHg 82%
    08:00 +7°C° 0 mm 2 m/S 763 mmHg 79%
    09:00 +9°C° 0 mm 2 m/S 762 mmHg 73%
    10:00 +10°C° 0 mm 3 m/S 762 mmHg 67%
    11:00 +12°C° 0 mm 3 m/S 762 mmHg 62%
    12:00 +12°C° 0 mm 3 m/S 761 mmHg 63%
    13:00 +12°C° 0 mm 3 m/S 761 mmHg 63%
    14:00 +12°C° 0 mm 3 m/S 761 mmHg 64%
    15:00 +11°C° 0 mm 3 m/S 760 mmHg 72%
    16:00 +9°C° 0 mm 3 m/S 760 mmHg 80%
    17:00 +8°C° 0 mm 3 m/S 760 mmHg 87%
    18:00 +7°C° 0 mm 3 m/S 760 mmHg 89%
    19:00 +6°C° 0 mm 4 m/S 760 mmHg 91%
    20:00 +6°C° 0 mm 4 m/S 760 mmHg 93%
    21:00 +6°C° 0 mm 4 m/S 760 mmHg 92%
    22:00 +6°C° 0 mm 4 m/S 760 mmHg 92%
    23:00 +7°C° 0 mm 4 m/S 760 mmHg 91%

    übermorgen, 19 Oktober, Freitag

    Zeit Temperatur Niederschläge Wind Luftdruck Luftfeuchtigkeit
    00:00 +7°C° 0 mm 4 m/S 759 mmHg 91%
    01:00 +7°C° 0 mm 4 m/S 759 mmHg 91%
    02:00 +7°C° 0 mm 4 m/S 759 mmHg 92%
    03:00 +7°C° 0 mm 4 m/S 759 mmHg 92%
    04:00 +7°C° 0 mm 4 m/S 759 mmHg 92%
    05:00 +8°C° 0 mm 4 m/S 759 mmHg 92%
    06:00 +8°C° 0 mm 4 m/S 759 mmHg 91%
    07:00 +10°C° 0 mm 4 m/S 759 mmHg 89%
    08:00 +11°C° 0 mm 4 m/S 759 mmHg 88%
    09:00 +12°C° 0 mm 4 m/S 760 mmHg 85%
    10:00 +12°C° 0 mm 4 m/S 760 mmHg 82%
    11:00 +13°C° 0 mm 4 m/S 760 mmHg 79%
    12:00 +13°C° 0 mm 4 m/S 760 mmHg 79%
    13:00 +13°C° 0 mm 4 m/S 760 mmHg 79%
    14:00 +14°C° 0 mm 4 m/S 760 mmHg 80%
    15:00 +12°C° 0 mm 4 m/S 760 mmHg 84%
    16:00 +11°C° 0 mm 4 m/S 760 mmHg 88%
    17:00 +10°C° 0 mm 4 m/S 760 mmHg 93%
    18:00 +10°C° 0 mm 4 m/S 760 mmHg 93%
    19:00 +9°C° 0 mm 5 m/S 760 mmHg 93%
    20:00 +9°C° 0 mm 5 m/S 761 mmHg 93%
    21:00 +10°C° 0.1 mm 5 m/S 761 mmHg 93%
    22:00 +10°C° 0.1 mm 5 m/S 761 mmHg 93%
    23:00 +10°C° 0.1 mm 5 m/S 761 mmHg 93%

    20 Oktober, Samstag

    Zeit Temperatur Niederschläge Wind Luftdruck Luftfeuchtigkeit
    00:00 +10°C° 0 mm 5 m/S 761 mmHg 93%
    01:00 +12°C° 0 mm 5 m/S 761 mmHg 94%
    02:00 +12°C° 0 mm 5 m/S 761 mmHg 94%
    03:00 +12°C° 0.1 mm 5 m/S 761 mmHg 95%
    04:00 +12°C° 0.1 mm 4 m/S 761 mmHg 95%
    05:00 +12°C° 0.1 mm 4 m/S 761 mmHg 96%
    06:00 +12°C° 0 mm 4 m/S 761 mmHg 96%
    07:00 +13°C° 0 mm 4 m/S 762 mmHg 96%
    08:00 +13°C° 0 mm 4 m/S 762 mmHg 95%
    09:00 +13°C° 0 mm 4 m/S 762 mmHg 95%
    10:00 +14°C° 0 mm 4 m/S 762 mmHg 95%
    11:00 +14°C° 0 mm 3 m/S 763 mmHg 95%
    12:00 +15°C° 0 mm 4 m/S 762 mmHg 94%
    13:00 +15°C° 0 mm 4 m/S 762 mmHg 94%
    14:00 +17°C° 0 mm 4 m/S 762 mmHg 93%
    15:00 +15°C° 0 mm 4 m/S 762 mmHg 94%
    16:00 +15°C° 0 mm 4 m/S 762 mmHg 96%
    17:00 +14°C° 0 mm 3 m/S 762 mmHg 98%
    18:00 +14°C° 0 mm 3 m/S 762 mmHg 98%
    19:00 +14°C° 0 mm 3 m/S 762 mmHg 98%
    20:00 +14°C° 0 mm 3 m/S 762 mmHg 98%
    21:00 +14°C° 0.1 mm 4 m/S 762 mmHg 98%
    22:00 +14°C° 0.1 mm 4 m/S 762 mmHg 98%
    23:00 +14°C° 0.1 mm 4 m/S 762 mmHg 98%

    21 Oktober, Sonntag

    Zeit Temperatur Niederschläge Wind Luftdruck Luftfeuchtigkeit
    00:00 +14°C° 0.1 mm 4 m/S 762 mmHg 98%
    01:00 +14°C° 0.1 mm 4 m/S 761 mmHg 98%
    02:00 +14°C° 0.1 mm 4 m/S 761 mmHg 98%
    03:00 +14°C° 0.1 mm 4 m/S 761 mmHg 98%
    04:00 +14°C° 0.1 mm 4 m/S 762 mmHg 98%
    05:00 +14°C° 0.1 mm 4 m/S 762 mmHg 98%
    06:00 +14°C° 0.1 mm 4 m/S 762 mmHg 96%
    07:00 +14°C° 0.1 mm 5 m/S 763 mmHg 95%
    08:00 +13°C° 0.1 mm 6 m/S 763 mmHg 93%
    09:00 +13°C° 0 mm 6 m/S 764 mmHg 92%
    10:00 +11°C° 0 mm 6 m/S 764 mmHg 90%
    11:00 +10°C° 0 mm 5 m/S 765 mmHg 89%
    12:00 +11°C° 0 mm 6 m/S 765 mmHg 85%
    13:00 +11°C° 0 mm 6 m/S 765 mmHg 81%
    14:00 +12°C° 0 mm 7 m/S 766 mmHg 78%
    15:00 +10°C° 0 mm 7 m/S 766 mmHg 81%
    16:00 +9°C° 0 mm 7 m/S 767 mmHg 84%
    17:00 +8°C° 0 mm 7 m/S 768 mmHg 87%
    18:00 +8°C° 0 mm 6 m/S 768 mmHg 87%
    19:00 +7°C° 0 mm 6 m/S 769 mmHg 88%
    20:00 +7°C° 0 mm 6 m/S 770 mmHg 88%
    21:00 +5°C° 0 mm 6 m/S 770 mmHg 88%
    22:00 +5°C° 0 mm 5 m/S 770 mmHg 88%
    23:00 +5°C° 0 mm 5 m/S 771 mmHg 88%

    22 Oktober, Montag

    Zeit Temperatur Niederschläge Wind Luftdruck Luftfeuchtigkeit
    00:00 +5°C° 0 mm 5 m/S 771 mmHg 88%
    01:00 +3°C° 0 mm 5 m/S 771 mmHg 87%
    02:00 +3°C° 0 mm 5 m/S 772 mmHg 87%
    03:00 +4°C° 0 mm 4 m/S 772 mmHg 87%
    04:00 +4°C° 0 mm 4 m/S 772 mmHg 87%
    05:00 +4°C° 0 mm 4 m/S 772 mmHg 87%
    06:00 +4°C° 0 mm 4 m/S 772 mmHg 84%
    07:00 +5°C° 0 mm 4 m/S 773 mmHg 81%
    08:00 +6°C° 0 mm 4 m/S 773 mmHg 79%
    09:00 +7°C° 0 mm 4 m/S 773 mmHg 75%
    10:00 +10°C° 0 mm 4 m/S 774 mmHg 72%
    11:00 +10°C° 0 mm 5 m/S 774 mmHg 68%
    12:00 +10°C° 0 mm 5 m/S 774 mmHg 69%
    13:00 +11°C° 0 mm 4 m/S 773 mmHg 69%
    14:00 +11°C° 0 mm 4 m/S 773 mmHg 70%
    15:00 +10°C° 0 mm 4 m/S 773 mmHg 75%
    16:00 +8°C° 0 mm 4 m/S 773 mmHg 81%
    17:00 +7°C° 0 mm 4 m/S 773 mmHg 86%
    18:00 +6°C° 0 mm 4 m/S 774 mmHg 87%
    19:00 +6°C° 0 mm 4 m/S 774 mmHg 88%
    20:00 +5°C° 0 mm 4 m/S 774 mmHg 90%
    21:00 +5°C° 0 mm 4 m/S 774 mmHg 90%
    22:00 +5°C° 0 mm 4 m/S 774 mmHg 91%
    23:00 +5°C° 0 mm 3 m/S 773 mmHg 92%
    Mehr zeigen